Tracking 19279 objects as of 14-Nov-2018
HD Live streaming from Space Station
objects crossing your sky now

DIRECTV 1R

Track DIRECTV 1R now!
DIRECTV 1R is classified as:


NORAD ID: 25937
Int'l Code: 1999-056A
Perigee: 36,132.3 km
Apogee: 36,196.7 km
Inclination: 4.8 °
Period: 1,455.1 minutes
Semi major axis: 42535 km
RCS: 3.9811 m2 (large)
Launch date: October 10, 1999
Source: United States (US)
Launch site: SEA LAUNCH (SEAL)

First commercial launch by Sea Launch consortium (American, Russian, Ukrainian companies); 16 Ku-band; video channels directly to home-based dishes; anticipated 50 million homes in North America.
aabbcc
Your satellite tracking list
Your tracking list is empty




NASA's NSSDC Master Catalog

Two Line Element Set (TLE):
1 25937U 99056A   18317.62090081 -.00000270 +00000-0 +00000-0 0  9991
2 25937 004.8135 067.2248 0007572 198.7642 166.3197 00.98963603069783
Source of the keplerian elements: AFSPC